CT2IRK-11 Weather Reports


time (UTC)temp
C
wind
direction
speed
KPH
gust
KPH
rain 1hr
cm
rain 24hr
cm
rain mn
cm
humidity
%
barometer
mb
20260509024006 13 113 6.4 12.9 0.00 0.20 0.03 88 997.9
20260509023005 13 81 6.4 12.9 0.00 0.20 0.03 88 997.8
20260509021005 13 128 6.4 9.7 0.00 0.20 0.03 87 998.3
20260509020005 13 332 0.0 0.0 0.00 0.20 0.03 86 998.6
20260509015006 13 174 1.6 11.3 0.00 0.20 0.03 84 998.7
20260509014005 14 184 1.6 11.3 0.00 0.20 0.03 84 998.7
20260509013005 14 212 8.0 9.7 0.00 0.20 0.03 83 999.0
20260509012005 14 183 6.4 9.7 0.03 0.20 0.03 83 999.0
20260509011006 14 167 8.0 14.5 0.03 0.20 0.03 82 999.1
20260509010006 14 167 9.7 16.1 0.03 0.20 0.03 83 999.1
20260509005005 14 173 8.0 16.1 0.03 0.20 0.03 83 998.9
20260509004005 14 128 14.5 22.5 0.03 0.20 0.03 84 998.9
20260509003006 14 168 11.3 14.5 0.03 0.20 0.03 86 998.9
20260509001006 14 147 9.7 14.5 0.00 0.18 0.00 84 999.1
20260509000005 15 147 9.7 14.5 0.00 0.18 0.00 84 999.3
20260508235005 15 158 9.7 16.1 0.00 0.18 0.00 84 999.2
20260508234006 15 147 9.7 24.1 0.00 0.18 0.00 84 999.2
20260508232006 15 146 14.5 25.7 0.00 0.18 0.00 85 999.3
20260508231005 15 189 14.5 22.5 0.00 0.18 0.00 85 999.3
20260508230006 15 164 9.7 22.5 0.00 0.18 0.00 86 999.3
20260508224005 14 170 8.0 14.5 0.00 0.18 0.18 87 999.0
20260508223005 14 112 14.5 16.1 0.03 0.18 0.18 87 998.9
20260508222005 14 118 9.7 20.9 0.05 0.18 0.18 90 998.8
20260508221006 14 151 11.3 24.1 0.08 0.18 0.18 86 998.5
20260508220005 14 135 16.1 27.4 0.10 0.18 0.18 90 998.5
20260508215005 14 21 14.5 22.5 0.13 0.18 0.18 92 999.1
20260508214005 14 98 19.3 24.1 0.15 0.18 0.18 93 999.2
20260508212005 15 176 11.3 16.1 0.13 0.13 0.13 92 1000.3
20260508211005 15 145 11.3 16.1 0.10 0.10 0.10 93 1000.5
20260508210005 15 174 11.3 19.3 0.08 0.08 0.08 91 1000.3
20260508205005 15 132 3.2 9.7 0.05 0.05 0.05 93 1000.2
20260508204005 15 182 3.2 8.0 0.03 0.03 0.03 93 1000.2
20260508203005 15 176 0.0 3.2 0.03 0.03 0.03 92 1000.0
20260508202006 15 202 0.0 11.3 0.00 0.00 0.00 90 999.8
20260508201005 15 183 0.0 0.0 0.00 0.00 0.00 88 999.8
20260508200005 15 181 0.0 11.3 0.00 0.00 0.00 88 999.7
20260508195005 15 182 9.7 12.9 0.00 0.00 0.00 86 999.9
20260508194005 16 179 9.7 19.3 0.00 0.00 0.00 84 1000.0
20260508193005 16 171 9.7 19.3 0.00 0.00 0.00 83 1000.0
20260508192005 16 240 11.3 22.5 0.00 0.00 0.00 80 999.8
20260508190005 18 200 16.1 22.5 0.00 0.00 0.00 64 998.9
20260508185005 18 242 14.5 16.1 0.00 0.00 0.00 60 998.9
20260508184005 19 211 8.0 11.3 0.00 0.00 0.00 55 998.9
20260508183005 20 161 4.8 11.3 0.00 0.00 0.00 54 999.0
20260508182005 20 211 1.6 11.3 0.00 0.00 0.00 53 998.8
20260508181005 20 205 6.4 12.9 0.00 0.00 0.00 53 999.0
20260508175005 20 180 9.7 16.1 0.00 0.00 0.00 53 999.1
20260508174006 20 230 9.7 14.5 0.00 0.00 0.00 53 999.1
20260508173005 20 222 8.0 14.5 0.00 0.00 0.00 50 999.2
20260508172005 21 202 11.3 14.5 0.00 0.00 0.00 47 999.3
20260508171005 21 202 9.7 14.5 0.00 0.00 0.00 47 999.2
20260508170005 21 180 12.9 16.1 0.00 0.00 0.00 46 999.3
20260508164006 21 217 12.9 19.3 0.00 0.00 0.00 45 999.2
20260508163005 21 135 9.7 14.5 0.00 0.00 0.00 46 999.3
20260508162005 21 209 6.4 14.5 0.00 0.00 0.00 44 999.5
20260508161005 22 256 3.2 11.3 0.00 0.00 0.00 42 999.6
20260508160005 22 283 4.8 11.3 0.00 0.00 0.00 41 999.5
20260508155005 22 199 9.7 16.1 0.00 0.00 0.00 41 999.6
20260508153006 23 239 12.9 14.5 0.00 0.00 0.00 38 999.8
20260508152005 22 207 11.3 16.1 0.00 0.00 0.00 40 999.9
20260508151005 22 202 11.3 16.1 0.00 0.00 0.00 40 1000.2
20260508150005 22 242 8.0 19.3 0.00 0.00 0.00 39 1000.3
20260508145006 23 211 12.9 16.1 0.00 0.00 0.00 37 1000.6
20260508144005 23 219 11.3 19.3 0.00 0.00 0.00 37 1000.7
20260508143005 22 229 9.7 12.9 0.00 0.00 0.00 38 1000.8
20260508142005 22 220 11.3 19.3 0.00 0.00 0.00 38 1000.8
20260508141006 23 205 11.3 16.1 0.00 0.00 0.00 37 1000.8
20260508140005 25 180 9.7 16.1 0.00 0.00 0.00 34 1001.0
20260508135005 24 173 11.3 14.5 0.00 0.00 0.00 34 1001.1
20260508134005 24 215 11.3 16.1 0.00 0.00 0.00 35 1001.2
20260508133005 22 154 9.7 20.9 0.00 0.00 0.00 37 1001.3
20260508132005 22 202 12.9 20.9 0.00 0.00 0.00 40 1001.6
20260508131005 23 99 8.0 14.5 0.00 0.00 0.00 37 1001.8
20260508130005 21 180 16.1 20.9 0.00 0.00 0.00 43 1001.9
20260508125006 21 180 8.0 14.5 0.00 0.00 0.00 44 1001.9
20260508124006 23 215 11.3 12.9 0.00 0.00 0.00 39 1002.0
20260508122005 20 193 8.0 16.1 0.00 0.00 0.00 46 1002.3
20260508121005 20 214 14.5 22.5 0.00 0.00 0.00 44 1002.3
20260508120005 22 180 8.0 16.1 0.00 0.00 0.00 40 1002.5
20260508115005 22 183 8.0 20.9 0.00 0.00 0.00 39 1002.6
20260508114005 22 144 8.0 14.5 0.00 0.00 0.00 40 1002.7
20260508113006 21 255 6.4 14.5 0.00 0.00 0.00 44 1002.9
20260508111005 21 209 11.3 19.3 0.00 0.00 0.00 42 1003.0
20260508110005 22 182 11.3 16.1 0.00 0.00 0.00 41 1003.2
20260508104005 22 229 11.3 19.3 0.00 0.00 0.00 42 1003.3
20260508103005 22 182 12.9 19.3 0.00 0.00 0.00 42 1003.3
20260508102005 21 224 9.7 16.1 0.00 0.00 0.00 43 1003.5
20260508101005 21 231 8.0 19.3 0.00 0.00 0.00 43 1003.5
20260508100005 20 194 9.7 19.3 0.00 0.00 0.00 45 1003.5
20260508095005 20 194 6.4 16.1 0.00 0.00 0.00 49 1003.6
20260508094005 20 188 11.3 12.9 0.00 0.00 0.00 51 1003.7
20260508093005 18 180 8.0 12.9 0.00 0.00 0.00 56 1003.6
20260508092005 17 131 14.5 19.3 0.00 0.00 0.00 57 1003.8
20260508091005 18 168 9.7 16.1 0.00 0.00 0.00 57 1003.7
20260508085004 17 211 8.0 11.3 0.00 0.00 0.00 62 1003.8
20260508084005 17 170 4.8 9.7 0.00 0.00 0.00 63 1003.8
20260508083005 17 132 4.8 9.7 0.00 0.00 0.00 65 1003.7
20260508082005 16 246 4.8 11.3 0.00 0.00 0.00 67 1003.7
20260508080004 15 242 6.4 8.0 0.00 0.00 0.00 75 1003.7
20260508075005 15 199 4.8 8.0 0.00 0.00 0.00 75 1003.6
20260508073004 14 208 0.0 3.2 0.00 0.00 0.00 74 1003.5
20260508072005 14 183 0.0 0.0 0.00 0.00 0.00 73 1003.3
20260508070006 13 188 0.0 0.0 0.00 0.00 0.00 76 1002.9
20260508065005 13 136 0.0 0.0 0.00 0.00 0.00 76 1002.9
20260508063004 13 141 0.0 0.0 0.00 0.00 0.00 80 1002.9
20260508060005 13 80 0.0 0.0 0.00 0.00 0.00 81 1002.6
20260508055005 13 170 0.0 0.0 0.00 0.00 0.00 81 1002.6
20260508054005 13 22 0.0 0.0 0.00 0.00 0.00 81 1002.5
20260508053004 13 13 0.0 0.0 0.00 0.00 0.00 81 1002.4
20260508052005 13 270 0.0 0.0 0.00 0.00 0.00 81 1002.5
20260508051005 13 210 0.0 0.0 0.00 0.00 0.00 79 1002.4
20260508050004 13 195 0.0 0.0 0.00 0.00 0.00 78 1002.4
20260508045006 13 183 0.0 0.0 0.00 0.00 0.00 77 1002.4
20260508044005 13 210 0.0 0.0 0.00 0.00 0.00 77 1002.3
20260508043005 13 171 0.0 0.0 0.00 0.00 0.00 77 1002.3
20260508042006 13 158 0.0 0.0 0.00 0.00 0.00 78 1002.2
20260508040006 13 183 0.0 0.0 0.00 0.00 0.00 79 1002.1
20260508035005 13 158 0.0 0.0 0.00 0.00 0.00 80 1002.2
20260508033006 13 206 0.0 8.0 0.00 0.00 0.00 81 1002.3
20260508032005 13 201 8.0 9.7 0.00 0.00 0.00 81 1002.3
20260508030006 13 202 0.0 1.6 0.00 0.00 0.00 81 1002.4
20260508025006 13 133 0.0 11.3 0.00 0.00 0.00 82 1002.4